Satellite: NOAA-12
Catalog number: 21263
Epoch time:      08241.63647697
Element set:     813
Inclination:      098.7703 deg
RA of node:       243.5915 deg
Eccentricity:    0.0011479
Arg of perigee:   277.3102 deg
Mean anomaly:     082.6771 deg
Mean motion:   14.25543733 rev/day
Decay rate:      .00000000 rev/day^2
Epoch rev:           89871
Checksum:              303

Satellite: MET-3/5
Catalog number: 21655
Epoch time:      08241.51593069
Element set:     479
Inclination:      082.5525 deg
RA of node:       053.2723 deg
Eccentricity:    0.0012972
Arg of perigee:   188.1188 deg
Mean anomaly:     171.9727 deg
Mean motion:   13.17016632 rev/day
Decay rate:        5.1e-07 rev/day^2
Epoch rev:           81910
Checksum:              305

Satellite: MET-2/21
Catalog number: 22782
Epoch time:      08240.87293065
Element set:     235
Inclination:      082.5450 deg
RA of node:       054.6988 deg
Eccentricity:    0.0024076
Arg of perigee:   089.2138 deg
Mean anomaly:     271.1782 deg
Mean motion:   13.83630249 rev/day
Decay rate:        3.4e-07 rev/day^2
Epoch rev:           75704
Checksum:              312

Satellite: OKEAN-4
Catalog number: 23317
Epoch time:      08240.73079757
Element set:     678
Inclination:      082.5365 deg
RA of node:       248.3070 deg
Eccentricity:    0.0020395
Arg of perigee:   250.1307 deg
Mean anomaly:     109.7729 deg
Mean motion:   14.82630771 rev/day
Decay rate:       1.49e-06 rev/day^2
Epoch rev:           74888
Checksum:              323

Satellite: NOAA-14
Catalog number: 23455
Epoch time:      08241.52449491
Element set:     284
Inclination:      098.9417 deg
RA of node:       313.7913 deg
Eccentricity:    0.0008563
Arg of perigee:   302.3748 deg
Mean anomaly:     057.6584 deg
Mean motion:   14.13747992 rev/day
Decay rate:        6.4e-07 rev/day^2
Epoch rev:           70457
Checksum:              331

Satellite: SICH-1
Catalog number: 23657
Epoch time:      08240.73652903
Element set:    0478
Inclination:      082.5279 deg
RA of node:       029.2911 deg
Eccentricity:    0.0022307
Arg of perigee:   243.1939 deg
Mean anomaly:     116.6993 deg
Mean motion:   14.81599623 rev/day
Decay rate:       2.26e-06 rev/day^2
Epoch rev:           70081
Checksum:              313

Satellite: NOAA-15
Catalog number: 25338
Epoch time:      08241.41278962
Element set:     601
Inclination:      098.5596 deg
RA of node:       231.4537 deg
Eccentricity:    0.0010501
Arg of perigee:   185.4548 deg
Mean anomaly:     174.6519 deg
Mean motion:   14.24722625 rev/day
Decay rate:       1.03e-06 rev/day^2
Epoch rev:           53508
Checksum:              300

Satellite: RESURS
Catalog number: 25394
Epoch time:      08240.98151087
Element set:    0019
Inclination:      098.3826 deg
RA of node:       281.6500 deg
Eccentricity:    0.0002058
Arg of perigee:   018.2283 deg
Mean anomaly:     341.8968 deg
Mean motion:   14.24168452 rev/day
Decay rate:       -4.0e-08 rev/day^2
Epoch rev:           52666
Checksum:              300

Satellite: FENGYUN1
Catalog number: 25730
Epoch time:      08241.55488326
Element set:     554
Inclination:      098.7258 deg
RA of node:       214.8987 deg
Eccentricity:    0.0020826
Arg of perigee:   327.2497 deg
Mean anomaly:     032.7379 deg
Mean motion:   14.07763124 rev/day
Decay rate:       6.07e-06 rev/day^2
Epoch rev:           47914
Checksum:              331

Satellite: OKEAN-0
Catalog number: 25860
Epoch time:      08240.55314214
Element set:     456
Inclination:      097.7558 deg
RA of node:       227.9628 deg
Eccentricity:    0.0001860
Arg of perigee:   061.1938 deg
Mean anomaly:     298.9457 deg
Mean motion:   14.73533408 rev/day
Decay rate:        1.4e-07 rev/day^2
Epoch rev:           48990
Checksum:              323

Satellite: NOAA-16
Catalog number: 26536
Epoch time:      08241.53078603
Element set:      75
Inclination:      099.1630 deg
RA of node:       232.3121 deg
Eccentricity:    0.0010964
Arg of perigee:   027.2485 deg
Mean anomaly:     332.9273 deg
Mean motion:   14.12495542 rev/day
Decay rate:       2.24e-06 rev/day^2
Epoch rev:           40898
Checksum:              291

Satellite: NOAA-17
Catalog number: 27453
Epoch time:      08241.49572491
Element set:      69
Inclination:      098.5289 deg
RA of node:       304.0072 deg
Eccentricity:    0.0010770
Arg of perigee:   255.7921 deg
Mean anomaly:     104.2078 deg
Mean motion:   14.23998318 rev/day
Decay rate:       1.76e-06 rev/day^2
Epoch rev:           32109
Checksum:              312

Satellite: NOAA-18
Catalog number: 28654
Epoch time:      08241.51485015
Element set:     557
Inclination:      098.8694 deg
RA of node:       181.5653 deg
Eccentricity:    0.0015260
Arg of perigee:   107.9444 deg
Mean anomaly:     252.3372 deg
Mean motion:   14.11188754 rev/day
Decay rate:        6.9e-07 rev/day^2
Epoch rev:           16867
Checksum:              329

/EX
SB KEPS @ AMSAT  $ORB08241.M
Orbital Elements  08241.MISC

HR AMSAT ORBITAL ELEMENTS FOR MANNED AND MISCELLANEOUS SATELLITES
FROM WA5QGD FORT WORTH,TX August 28, 2008
Send Subscribe/unsubscribe to KEPS at 
http://www.amsat.org/mailman/listinfo/keps
BID: ORB08241.M
TO ALL RADIO AMATEURS BT

